OpenBCM V1.13 (Linux)

Packet Radio Mailbox

DB0FHN

[JN59NK Nuernberg]

 Login: GUEST





  
I0OJJ  > AMSAT    01.09.26 03:03l 331 Lines 15650 Bytes #999 (0) @ WW
BID : 504_IR0EQ
Read: OE5RCO DJ6UX GUEST
Subj: 2Line Orbital Elements
Path: DB0FHN<OE2XZR<OK1TOR<SR6DWH<SR1BSZ<EA2RCF<IR0EQ
Sent: 260901/0027z @:IR0EQ.ITA.EU [Rome] $:504_IR0EQ

>From i0ojj@rgate.ampr.org Tue Sep  1 02:27:25 2026
Received: from rgate.ampr.org by rgate.ampr.org (JNOS2.0q.1) with SMTP
	id AA6484 ; Tue, 01 Sep 2026 02:27:25 +0200
Received: by rgate.ampr.org with SMTP
	id AA6481 ; Tue, 01 Sep 2026 02:27:02 +0200
Message-Id: <6482@rgate.ampr.org>
>From: i0ojj@rgate.ampr.org

SB KEPS @ AMSAT  $ORB26244.1
2Line Orbital Elements 26244.AMSAT

QST de W1STR

AMSAT Orbital Elements for Amateur Satellites in TLE Format
>From Orbital Analysis Office
New England Sci-Tech STEM Education Center
Natick MA September 01, 2026
To all radio amateurs


These element sets describe the orbits of various satellites 
in use by the amateur radio community. For details see:
www.amsat.org/keplerian-elements-formats/

A daily update of element sets is available at:
www.amsat.org/tle/daily-bulletin.txt
or without bulletin text:
www.amsat.org/tle/dailytle.txt


AO-07
1 07530U 74089B   26243.56559926 -.00000046  00000-0  60356-6 0  9994
2 07530 101.9921 257.6005 0012190 349.2633 134.3126 12.53699388369965
UO-11
1 14781U 84021B   26243.45862973  .00001262  00000-0  13346-3 0  9998
2 14781  97.8142 208.2328 0006262 302.2564  57.8047 14.90959875268348
LO-19
1 20442U 90005G   26243.53160017  .00000055  00000-0  36385-4 0  9995
2 20442  98.8835 267.4064 0011290 350.8318   9.2658 14.34141140913191
AO-27
1 22825U 93061C   26243.44722546  .00000057  00000-0  38489-4 0  9997
2 22825  98.6816 310.8096 0007443 234.8929 125.1557 14.30958531717764
FO-29
1 24278U 96046B   26243.50050398 -.00000024  00000-0  14383-4 0  9995
2 24278  98.5183  82.0487 0348816 260.9716  95.1803 13.53277561483358
GO-32
1 25397U 98043D   26243.57526180  .00000025  00000-0  31031-4 0  9990
2 25397  99.0135 238.2580 0001715  39.7282 320.4021 14.24440728462064
ISS
1 25544U 98067A   26243.46624056  .00005046  00000-0  99862-4 0  9993
2 25544  51.6314 287.5025 0005046  92.8598 267.2968 15.48949540583428
NO-44
1 26931U 01043C   26243.52184984  .00000059  00000-0  53070-4 0  9990
2 26931  67.0503  49.4166 0005652 270.9348  89.1106 14.31979647301230
SO-50
1 27607U 02058C   26243.40616841  .00000694  00000-0  99463-4 0  9998
2 27607  64.5504 256.2337 0072766 248.6733 110.6596 14.83187060275614
CO-55
1 27844U 03031E   26243.48238504  .00000189  00000-0  10075-3 0  9997
2 27844  98.6768 251.1048 0008998 333.8773  26.1951 14.24374829202394
RS-22
1 27939U 03042A   26243.65513003  .00000961  00000-0  15577-3 0  9993
2 27939  98.3481  70.1639 0012030  34.8318  29.5389 14.73583177226668
CO-65
1 32785U 08021C   26243.60546130  .00003565  00000-0  22297-3 0  9992
2 32785  97.8356 226.6585 0010181 125.0304 235.1882 15.10061780996579
CO-66
1 32791U 08021J   26243.54464267  .00016502  00000-0  48585-3 0  9995
2 32791  97.7557 245.1958 0004364  69.2287 290.9422 15.35134240998843
RS-30
1 32953U 08025A   26243.58693328  .00000069  00000-0  42187-3 0  9998
2 32953  82.5055 308.5487 0020408 144.8310 215.4121 12.43182555829066
SRMSAT
1 37841U 11058D   26243.56908150  .00000363  00000-0  53169-4 0  9999
2 37841  19.9729 323.1941 0011693 314.2579  73.8553 14.11589608768483
ZACUBE-1
1 39417U 13066B   26243.45066934  .00004964  00000-0  37993-3 0  9991
2 39417  97.8077 206.1544 0041324   1.4117 358.7216 15.01683951692024
Delfi-N3xt
1 39428U 13066N   26243.31706172  .00006234  00000-0  53353-3 0  9993
2 39428  97.8292 163.5824 0072050 317.7176  41.8503 14.95942640685857
GOMX-1
1 39430U 13066Q   26243.49199600  .00001956  00000-0  29783-3 0  9993
2 39430  97.6442  79.2080 0127611 194.8718 164.8722 14.69653836680976
LO-74
1 39440U 13066AA  26243.61154150  .00003258  00000-0  29970-3 0  9994
2 39440  97.8962 192.9548 0058218 135.8800 224.7086 14.94194680688254
AO-73
1 39444U 13066AE  26243.47052769  .00006903  00000-0  41816-3 0  9998
2 39444  97.8359 216.5695 0034127 309.4689  50.3522 15.10436573691027
DTUSAT-2
1 40030U 14033W   26243.50980471  .00005588  00000-0  29570-3 0  9991
2 40030  98.0911 246.0878 0007268 351.4950   8.6157 15.15876985664099
LILACSAT-2
1 40908U 15049K   26243.61192343  .00016098  00000-0  25163-3 0  9990
2 40908  97.4579 283.4219 0005693 353.2734   6.8442 15.53853115607456
Lapan A3
1 41603U 16040E   26243.63200503  .00002667  00000-0  84462-4 0  9990
2 41603  97.1551 237.3446 0012083 102.6965 257.5630 15.33524413566372
CAS-2T
1 41847U 16066G   26243.17354620  .00000485  00000-0  78165-4 0  9996
2 41847  98.3770 318.0501 0340015 261.9868  94.2619 14.44820821515625
TechnoSat
1 42829U 17042E   26243.43856706  .00002951  00000-0  20968-3 0  9990
2 42829  97.4390  38.2952 0017130 192.2489 167.8324 15.05335235498021
AO-91
1 43017U 17073E   26243.59352177  .00007708  00000-0  32716-3 0  9993
2 43017  97.4579 109.2689 0149323  68.2356 293.4691 15.13711160476798
S-Net D
1 43186U 18014G   26243.26285808  .00004022  00000-0  20517-3 0  9998
2 43186  97.5268 147.5816 0009684 112.8145 247.4112 15.17274916470142
S-Net B
1 43187U 18014H   26243.27583198  .00004368  00000-0  22267-3 0  9990
2 43187  97.5274 147.5831 0010386 109.2247 251.0111 15.17242931470143
S-Net A
1 43188U 18014J   26243.26132714  .00003996  00000-0  20378-3 0  9991
2 43188  97.5285 147.7920 0010263 109.7905 250.4436 15.17283260470140
S-Net C
1 43189U 18014K   26243.28016290  .00004428  00000-0  22566-3 0  9996
2 43189  97.5302 147.8970 0011689 104.0598 256.1935 15.17232712468696
Ten-Koh
1 43677U 18084G   26243.54916361  .00001848  00000-0  14144-3 0  9998
2 43677  98.0757  79.0978 0008587 219.3355 140.7246 15.03206424427487
PO-101
1 43678U 18084H   26243.58689425  .00001571  00000-0  12921-3 0  9995
2 43678  98.1189  83.1133 0010633 278.2734  81.7283 15.00693272427525
QO-100
1 43700U 18090A   26243.25281789  .00000148  00000-0  00000-0 0  9994
2 43700   0.0139 111.4789 0002723  83.8620 260.9101  1.00273856 28428
MinXSS-2
1 43758U 18099A   26243.45592700  .00041569  00000-0  68459-3 0  9993
2 43758  97.4468 322.2117 0005572 354.1071   6.0115 15.52206392425789
AO-95
1 43770U 18099N   26243.08766671  .00009363  00000-0  34325-3 0  9997
2 43770  97.4312 303.1067 0009993  85.7157 274.5224 15.28159584424657
SNUSat 2
1 43782U 18099AA  26243.59334310  .00006283  00000-0  27076-3 0  9990
2 43782  97.3985 295.8443 0010889  39.9795 320.2241 15.22870930424506
SnugLite
1 43784U 18099AC  26243.58829595  .00008237  00000-0  29844-3 0  9991
2 43784  97.3796 297.1764 0003617  50.7640 309.3920 15.28625283424833
ITASat 1
1 43786U 18099AE  26243.55629636  .00005738  00000-0  26978-3 0  9992
2 43786  97.3957 293.5796 0014034  90.0756 270.2087 15.19883691424355
EAGLET 1
1 43790U 18099AJ  26243.57039082  .00002955  00000-0  16868-3 0  9994
2 43790  97.4160 291.2399 0012719  86.3580 273.9106 15.13429869423732
ESEO
1 43792U 18099AL  26243.54293431  .00000550  00000-0  43452-4 0  9992
2 43792  97.3924 277.6941 0013875  78.0595 282.2186 15.04437459423139
JO-97
1 43803U 18099AX  26243.13832954  .00015944  00000-0  45804-3 0  9994
2 43803  97.4057 306.3255 0005361  20.1821 339.9634 15.35898858425126
Suomi 100
1 43804U 18099AY  26243.12877977  .00011257  00000-0  38935-3 0  9998
2 43804  97.4113 303.3002 0009889  24.8756 335.2960 15.30018378424872
ISAT
1 43879U 18111D   26242.81084267  .00298505  00000-0  11901-2 0  9998
2 43879  97.5802 184.7467 0007410 109.2866 250.9206 15.85827129422904
UWE-4
1 43880U 18111E   26242.79372430  .00039887  00000-0  69250-3 0  9996
2 43880  97.5820 174.8698 0009397  65.5168 294.7062 15.50696911422324
Sparrow
1 43881U 18111F   26228.98401838  .16116594  28263-5  19760-3 0  9992
2 43881  97.5857 177.1140 0010462 202.8700 157.2139 16.49385238421037
Prox-1
1 44339U 19036A   26243.59316463  .00010466  00000-0  97384-3 0  9997
2 44339  23.9958 329.8989 0005355 182.0656 177.9822 14.92211816384742
Taurus 1
1 44530U 19059C   26243.60408208  .00004638  00000-0  73381-3 0  9991
2 44530  98.6486  53.1845 0009500  77.8623 282.3646 14.72781864369740
TO-108
1 44881U 19093C   26243.63415373  .00001586  00000-0  18454-3 0  9991
2 44881  97.7479 314.0078 0012958 192.1937 167.8967 14.86621537362626
RS-44
1 44909U 19096E   26243.52648703  .00000022  00000-0  51066-4 0  9999
2 44909  82.5197 289.6496 0216831 328.4902  30.3360 12.79749105311985
SALSAT
1 46495U 20068K   26243.53895434  .00006251  00000-0  21286-3 0  9998
2 46495  97.8883 251.2596 0010645  46.4039 313.8083 15.30755015326880
CSS (TIANHE-1)
1 48274U 21035A   26243.43350761  .00017491  00000-0  21829-3 0  9999
2 48274  41.4679 225.2163 0001999 253.8537 106.2082 15.59461218304918
TeikyoSat 4
1 49396U 21102B   26243.55140603  .00001615  00000-0  10376-3 0  9991
2 49396  97.3644 270.1031 0012976  40.3124 319.9065 15.09735790264099
Z-Sat
1 49399U 21102E   26243.58242772  .00002403  00000-0  11845-3 0  9995
2 49399  97.3279 276.6236 0016046 350.3410   9.7514 15.18770723264883
KOSEN 1
1 49402U 21102H   26243.55063040  .00005770  00000-0  21493-3 0  9996
2 49402  97.3123 284.2694 0011705 305.0419  54.9722 15.27784311265525
HO-113
1 50466U 21131B   26243.51164550  .00000447  00000-0  15165-3 0  9999
2 50466  98.4983 335.4929 0003218 218.4439 141.6521 14.41415921245962
SNUGLITE 2
1 52899U 22065F   26243.39643396  .00000724  00000-0  14591-3 0  9994
2 52899  98.2310  28.1435 0008263 140.7024 219.4780 14.64465024222001
UmKA 1 (RS40S)
1 57172U 23091G   26243.54289125  .00004451  00000-0  20034-3 0  9996
2 57172  97.4977 301.9615 0011658 209.6445 150.4131 15.21554297175462
CubeBel-2 (EU11S)
1 57175U 23091K   26243.46045918  .00010762  00000-0  36354-3 0  9994
2 57175  97.4978 307.4133 0008934 198.5933 161.4983 15.30808170175811
RS-38S
1 57189U 23091Z   26243.53135668  .00015309  00000-0  40818-3 0  9991
2 57189  97.5024 314.6222 0007630 151.1156 209.0513 15.38219799176261
